www.pogodaiklimat.ru

Погода и климат >> Архив погоды >> Парагвай >> Асунсьон


ПОГОДА в Асунсьоне

  • Прогноз погоды в Асунсьоне
  • Монитор погоды в Асунсьоне

АРХИВ ПОГОДЫ в Асунсьоне

Время (UTC), дата Ветер
(напр.,м/с)
 
Видим.   Явления Облачность Т
(С)
Тd
(С)
f
(%)
Тe
(С)
Тes
(С)
Комфортность P
(гПа)
Po
(гПа)
Тmin
(С)
Tmax
(С)
R
(мм)
R24
(мм)
S
(см)
09 15.02 ЮЗ 2 20 км 8/0
[Ac und]
+21.8 +19.1 85 +27 +27 душно 1010.9 1001.3
12 15.02 ЮЗ 5 20 км 6/0 2000 м
[Ac und]
+24.0 +17.7 68 +28 +31 душно 1011.6 1002.0 +20.8 28
15 15.02 ЮЗ 7 20 км 4/4 1200 м
[Cu hum]
+28.0 +18.4 56 +33 +36 очень
душно
1011.4 1001.9
18 15.02 Ю 6 20 км 8/8 1000 м
[Cu Sc]
+28.8 +16.4 47 +32 +33 душно 1010.3 1000.9
21 15.02 ЮЗ 6 20 км 8/3 1000 м
[Cu Sc Ac und]
+28.8 +18.0 52 +33 +34 очень
душно
1009.0 999.6
00 16.02 Ю 3 20 км ясно +25.0 +18.6 68 +30 +30 душно 1010.6 1001.0 +29.2
03 16.02 Ю 4 20 км ясно +22.8 +18.2 75 +28 +28 душно 1011.4 1001.8
06 16.02 Ю 3 20 км ясно +21.6 +17.6 78 +26 +26 душно 1011.1 1001.4
09 16.02 ЮЗ 4 20 км 8/5 600 м
[Sc Ac und]
+20.8 +19.3 91 +25 +25 комфорт 1010.6 1000.9
12 16.02 Ю 5 20 км 6/6 300 м
[Sc]
+22.6 +18.2 76 +28 +29 душно 1011.2 1001.6 +20.6
15 16.02 Ю 5 20 км 10/10 450 м
[Sc]
+23.6 +19.3 77 +29 +29 душно 1011.6 1002.0
18 16.02 ЮЗ 7 20 км 9/9 450 м
[Sc]
+26.2 +19.7 67 +32 +32 очень
душно
1010.0 1000.5 0.0
21 16.02 ЮЗ 7 20 км 6/6 450 м
[Sc]
+26.4 +19.6 66 +32 +32 очень
душно
1008.7 999.2
00 17.02 ЮЗ 3 20 км 4/0 900 м
[Ac cast]
+23.8 +20.8 83 +30 +30 очень
душно
1009.7 1000.1 +26.6
03 17.02 Ю 3 20 км {дождь} 6/4 600 м
[Sc Ac As]
+22.2 +20.6 91 +29 +29 очень
душно
1010.3 1000.6 0.8
06 17.02 Ю 1 20 км 3/0 2000 м
[Ac trans]
+21.6 +20.7 95 +27 +27 душно 1009.4 999.8
09 17.02 ЮВ 1 9000 м дымка 3/0 2000 м
[Ac trans]
+21.0 +20.8 99 +27 +27 душно 1009.0 999.3
12 17.02 ЮВ 3 20 км 1/1 600 м
[Sc Ac trans]
+24.4 +20.7 80 +30 +36 очень
душно
1010.1 1000.5 +21.0 0.8
15 17.02 ЮЗ 2 20 км 8/8 1000 м
[Cu hum]
+27.6 +20.6 66 +34 +39 очень
душно
1010.3 1000.8
18 17.02 В 2 20 км 6/6 900 м
[Cu Sc]
+29.4 +19.8 56 +35 +42 очень
душно
1008.9 999.5
21 17.02 Ю 4 20 км 4/4 1000 м
[Cu med, cong]
+30.2 +19.1 51 +36 +36 очень
душно
1008.0 998.6
00 18.02 штиль 0 20 км 4/4 1000 м
[Sc]
+22.4 +21.7 96 +30 +30 очень
душно
1009.0 999.4 +30.4 0.0
03 18.02 СВ 2 20 км ясно +21.4 +19.1 87 +26 +26 душно 1009.5 999.9
06 18.02 штиль 0 20 км ясно +20.6 +19.5 93 +25 +25 комфорт 1008.8 999.2
09 18.02 штиль 0 20 км 1/0
[Ci fib]
+20.2 +19.6 96 +24 +24 комфорт 1008.9 999.3
12 18.02 В 2 20 км ясно +24.6 +20.4 77 +30 +38 очень
душно
1010.0 1000.4 +20.0
15 18.02 штиль 0 20 км 3/3 1200 м
[Cu hum]
+28.8 +20.0 59 +35 +54 опасность
солнечного
удара
1009.6 1000.2
18 18.02 С 2 20 км 6/6 1000 м
[Cu Sc]
+32.2 +19.7 48 +38 +45 очень
душно
1007.1 997.8
21 18.02 Ю 1 20 км 1/1 1200 м
[Cu hum]
+32.0 +18.3 44 +37 +38 очень
душно
1005.7 996.4
00 19.02 штиль 0 9000 м дым ясно +26.6 +21.1 72 +34 +34 очень
душно
1007.5 998.0 +32.2
03 19.02 штиль 0 7000 м дым ясно +24.2 +20.9 82 +30 +30 очень
душно
1008.5 998.9
06 19.02 штиль 0 20 км ясно +23.4 +21.2 87 +31 +31 очень
душно
1008.1 998.5
09 19.02 штиль 0 20 км ясно +22.0 +20.7 92 +28 +28 душно 1008.1 998.5
12 19.02 С 1 20 км ясно +26.4 +21.4 74 +34 +42 очень
душно
1009.5 1000.0 +21.8
15 19.02 В 1 20 км 5/5 1000 м
[Cu hum]
+32.0 +21.5 54 +40 +52 опасность
солнечного
удара
1009.2 999.9
18 19.02 ЮЗ 2 20 км 8/8 1000 м
[Cu Sc]
+33.8 +20.5 46 +41 +44 опасность
перегрева
1006.8 997.6
21 19.02 Ю 4 20 км 4/4 1000 м
[Cu Sc]
+33.8 +18.9 41 +39 +39 очень
душно
1005.1 995.9
00 20.02 ЮВ 3 9000 м дым {гроза} 1/1 1000 м
[Cu Sc]
+29.2 +21.2 62 +37 +37 очень
душно
1007.4 998.0 +34.5
03 20.02 штиль 0 9000 м дым 1/0 2000 м
[Ac trans]
+26.2 +21.6 76 +34 +34 очень
душно
1009.4 999.9
06 20.02 штиль 0 20 км ясно +24.3 +20.9 81 +30 +30 очень
душно
1009.2 999.6
09 20.02 СВ 1 20 км 6/3 1000 м
[Sc Ac cast]
+22.8 +21.5 92 +30 +30 очень
душно
1009.8 1000.2
12 20.02 СВ 2 20 км 3/3 1000 м
[Cu Sc]
+26.6 +21.3 73 +34 +39 очень
душно
1010.6 1001.0 +21.8
15 20.02 ЮВ 2 20 км 3/3 1000 м
[Cu Sc]
+32.0 +21.8 55 +41 +56 опасность
перегрева
1010.1 1000.7
18 20.02 ЮВ 2 20 км 5/5 1000 м
[Cu Sc]
+34.4 +18.7 40 +39 +47 очень
душно
1008.5 999.3
21 20.02 В 2 20 км 4/4 1000 м
[Cu Sc]
+34.2 +20.4 44 +41 +42 опасность
перегрева
1007.2 998.0
00 21.02 В 2 7000 м дым ясно +29.0 +21.8 65 +37 +37 очень
душно
1007.6 998.2 +35.2
03 21.02 штиль 0 20 км 3/0
[Ac und]
+26.6 +22.7 79 +35 +35 очень
душно
1009.0 999.5
06 21.02 В 1 20 км ясно +25.6 +21.6 79 +33 +33 очень
душно
1009.0 999.5
09 21.02 штиль 0 20 км ясно +23.0 +20.8 87 +30 +30 очень
душно
1009.5 999.9
12 21.02 СВ 2 20 км ясно +28.2 +22.0 69 +36 +43 очень
душно
1011.8 1002.2 +22.6
15 21.02 СВ 3 20 км 1/1 1000 м
[Cu hum]
+32.6 +21.4 52 +41 +57 опасность
перегрева
1012.1 1002.5
18 21.02 С 2 20 км 4/4 1000 м
[Cu hum]
+35.4 +21.6 45 +43 +52 опасность
перегрева
1010.8 1001.3
21 21.02 С 2 20 км 3/3 1000 м
[Cu hum]
+35.0 +21.9 47 +44 +45 опасность
перегрева
1009.2 999.7
00 22.02 В 2 10 км дым ясно +28.4 +21.9 68 +37 +37 очень
душно
1010.0 1000.5 +35.4
03 22.02 В 3 12 км дым ясно +27.8 +22.3 72 +36 +36 очень
душно
1011.2 1001.7
06 22.02 В 3 20 км ясно +25.8 +23.0 85 +34 +34 очень
душно
1010.5 1001.0

 

Местоположение метеостанции Асунсьон (Парагвай): широта -25.25 долгота -57.51 высота над уровнем моря 101 м.

В архиве по умолчанию представлена погода в Асунсьоне за последнюю неделю. Архивные данные за месяц целиком и за предыдущие месяцы, начиная с января 2011 года, Вы можете получить, выбрав интересующий диапазон дат из раскрывающегося списка и нажав кнопку "Ввод!".


*Определитесь, кто Вы:
робот инопланетянин человек

Внимание! Время в таблицах - всемирное. Для получения местного времени необходимо прибавить поправку, которая равна -4 ч.

Смотрите также архив погоды в соседних городах и на ближайших метеорологических станциях:

Погода в Парагуари (Парагвай) (57 км)
Погода в Коронель-Овьедо (Парагвай) (118 км)
Погода в Куйкуйо (Парагвай) (120 км)
Погода в Вильяррике (Парагвай) (122 км)
Погода в Сан Эстанислао (Парагвай) (128 км)
Погода в Формосе (Аргентина) (128 км)
Погода в Сан-Педро (Парагвай) (139 км)
Погода в Грал Бругуез (Парагвай) (144 км)
Погода в Каасапе (Парагвай) (156 км)
Погода в Сан Хуан Батистута (Парагвай) (161 км)

Пояснения к столбцам:

Ветер - указаны скорость ветра в м/с - средняя за 10 мин, порывы в срок и между сроками (в фигурных скобках) и направление, откуда дует ветер: С - северный, СВ - северо-восточный, В - восточный, ЮВ - юго-восточный, Ю - южный, ЮЗ - юго-западный, З - западный, СЗ - северо-западный.
Видимость - горизонтальная дальность видимости в метрах или километрах. При видимости от 1 до 10 км при отсутствии осадков обычно наблюдается дымка, при ухудшении видимости до 1 км и менее - туман. В сухую погоду видимость может ухудшаться дымом, пылью или мглою.
Явления - указаны атмосферные явления, наблюдавшиеся в срок или в последний час перед сроком; фигурными скобками обозначены явления, наблюдавшиеся между сроками (за 1-3 часа до срока); квадратными скобками обозначены град или гололедные отложения с указанием их диаметра в мм.
Облачность - указаны через наклонную черту общая и нижняя облачность в баллах и высота нижней границы облаков в метрах; квадратными скобками обозначены формы облаков: Ci - перистые, Cs - перисто-слоистые, Cc - перисто-кучевые, Ac - высококучевые, As - высокослоистые, Sc - слоисто-кучевые, Ns - слоисто-дождевые, Cu - кучевые, Cb - кучево-дождевые. Подробнее классификацию облаков см. в Атласе облаков (PDF).
T - Температура воздуха - температура, измеренная на высоте 2 м над землей.
Td - Температура точки росы - температура, при понижении до которой содержащийся в воздухе водяной пар достигнет насыщения.
f - Относительная влажность воздуха - влажноcть воздуха, измеренная на высоте 2 м над землей.
Te - Эффективная температура - температура, которую ощущает одетый по сезону человек в тени. Характеристика душности погоды. При расчете учитывается влияние влажности воздуха и скорости ветра на теплоощущения человека.
Tes - Эффективная температура на солнце - температура, которую ощущает человек, с поправкой на солнечный нагрев. Характеристика знойности погоды. Зависит от высоты солнца над горизонтом, облачности и скорости ветра. Ночью, в пасмурную погоду, а также при ветре 12 м/с и более поправка равна нулю.
P - Атмосферное давление - приведенное к уровню моря атмосферное давление.
Po - Атмосферное давление - измеренное на уровне метеостанции атмосферное давление.
Tmin - Минимальная температура - минимум температуры воздуха на высоте 2 м над землей.
Tmax - Максимальная температура - максимум температуры воздуха на высоте 2 м над землей.
R - Количество осадков - Количество выпавших осадков за период времени, мм. При наведении курсора мыши на число - период времени, за который выпало указанное количество осадков.
R24 - Количество осадков - Количество выпавших осадков за 24 часа, мм.
S - Снежный покров - Высота снежного покрова, см. При наведении курсора мыши на число - состояние снежного покрова и степень покрытия местности в баллах.